Time,TemperatureF,DewpointF,PressureIn,WindDirection,WindDirectionDegrees,WindSpeedMPH,WindSpeedGustMPH,Humidity,HourlyPrecipIn,Conditions,Clouds,dailyrainin,SoftwareType,DateUTC
2013-03-07 00:00:00,31.8,28.4,30.23,West,278,0.0,1.0,87,0.00,,---,0.00,VWS V14.01,2013-03-07 05:00:00,
2013-03-07 00:01:00,31.8,28.4,30.23,West,278,1.0,1.0,87,0.00,,---,0.00,VWS V14.01,2013-03-07 05:01:00,
2013-03-07 00:06:00,31.8,28.4,30.23,West,277,0.0,1.0,87,0.00,,---,0.00,VWS V14.01,2013-03-07 05:06:00,
2013-03-07 00:11:00,31.8,28.4,30.22,West,277,0.0,1.0,87,0.00,,---,0.00,VWS V14.01,2013-03-07 05:11:00,
2013-03-07 00:16:00,31.7,28.3,30.23,West,278,0.0,1.0,87,0.00,,---,0.00,VWS V14.01,2013-03-07 05:16:00,
2013-03-07 00:21:00,31.8,28.4,30.22,West,280,0.0,1.0,87,0.00,,---,0.00,VWS V14.01,2013-03-07 05:21:00,
2013-03-07 00:27:00,31.8,28.4,30.22,West,280,0.0,1.0,87,0.00,,---,0.00,VWS V14.01,2013-03-07 05:27:00,
2013-03-07 00:32:00,31.8,28.4,30.22,West,280,0.0,1.0,87,0.00,,---,0.00,VWS V14.01,2013-03-07 05:32:00,
2013-03-07 00:37:00,31.8,28.4,30.22,West,280,0.0,1.0,87,0.00,,---,0.00,VWS V14.01,2013-03-07 05:37:00,
2013-03-07 00:42:00,31.7,28.3,30.22,West,280,0.0,1.0,87,0.00,,---,0.00,VWS V14.01,2013-03-07 05:42:00,
2013-03-07 00:47:00,31.6,28.2,30.22,West,280,0.0,1.0,87,0.00,,---,0.00,VWS V14.01,2013-03-07 05:47:00,
2013-03-07 00:52:00,31.5,28.4,30.22,West,280,0.0,1.0,88,0.00,,---,0.00,VWS V14.01,2013-03-07 05:52:00,
2013-03-07 00:57:00,31.5,28.4,30.22,West,280,0.0,1.0,88,0.00,,---,0.00,VWS V14.01,2013-03-07 05:57:00,
2013-03-07 01:02:00,31.5,28.4,30.22,West,278,1.0,1.0,88,0.00,,---,0.00,VWS V14.01,2013-03-07 06:02:00,
2013-03-07 01:07:00,31.5,28.4,30.22,West,278,0.0,1.0,88,0.00,,---,0.00,VWS V14.01,2013-03-07 06:07:00,
2013-03-07 01:12:00,31.4,28.3,30.22,West,278,0.0,1.0,88,0.00,,---,0.00,VWS V14.01,2013-03-07 06:12:00,
2013-03-07 01:17:00,31.4,28.3,30.22,West,278,0.0,1.0,88,0.00,,---,0.00,VWS V14.01,2013-03-07 06:17:00,
2013-03-07 01:23:00,31.4,28.3,30.22,West,278,0.0,1.0,88,0.00,,---,0.00,VWS V14.01,2013-03-07 06:23:00,
2013-03-07 01:28:00,31.4,28.3,30.22,West,278,0.0,1.0,88,0.00,,---,0.00,VWS V14.01,2013-03-07 06:28:00,
2013-03-07 01:33:00,31.3,28.2,30.22,West,278,0.0,1.0,88,0.00,,---,0.00,VWS V14.01,2013-03-07 06:33:00,
2013-03-07 01:38:00,31.3,28.4,30.22,West,278,0.0,1.0,89,0.00,,---,0.00,VWS V14.01,2013-03-07 06:38:00,
2013-03-07 01:43:00,31.3,28.4,30.22,West,276,0.0,1.0,89,0.00,,---,0.00,VWS V14.01,2013-03-07 06:43:00,
2013-03-07 01:48:00,31.3,28.2,30.23,West,277,0.0,1.0,88,0.00,,---,0.00,VWS V14.01,2013-03-07 06:48:00,
2013-03-07 01:54:00,31.3,28.2,30.23,West,276,0.0,1.0,88,0.00,,---,0.00,VWS V14.01,2013-03-07 06:54:00,
2013-03-07 01:59:00,31.3,28.2,30.23,West,277,0.0,1.0,88,0.00,,---,0.00,VWS V14.01,2013-03-07 06:59:00,
2013-03-07 02:04:00,31.2,28.1,30.23,West,277,0.0,1.0,88,0.00,,---,0.00,VWS V14.01,2013-03-07 07:04:00,
2013-03-07 02:09:00,31.2,28.1,30.23,West,278,0.0,1.0,88,0.00,,---,0.00,VWS V14.01,2013-03-07 07:09:00,
2013-03-07 02:14:00,31.2,28.3,30.23,West,278,0.0,1.0,89,0.00,,---,0.00,VWS V14.01,2013-03-07 07:14:00,
2013-03-07 02:19:00,31.1,28.2,30.23,West,278,0.0,1.0,89,0.00,,---,0.00,VWS V14.01,2013-03-07 07:19:00,
2013-03-07 02:24:00,31.1,28.2,30.23,NNW,345,0.0,1.0,89,0.00,,---,0.00,VWS V14.01,2013-03-07 07:24:00,
2013-03-07 02:29:00,31.0,28.1,30.23,NNW,344,0.0,1.0,89,0.00,,---,0.00,VWS V14.01,2013-03-07 07:29:00,
2013-03-07 02:35:00,31.0,28.1,30.23,NNW,344,0.0,1.0,89,0.00,,---,0.00,VWS V14.01,2013-03-07 07:35:00,
2013-03-07 02:40:00,31.0,28.1,30.23,NNW,344,0.0,1.0,89,0.00,,---,0.00,VWS V14.01,2013-03-07 07:40:00,
2013-03-07 02:45:00,30.9,28.0,30.23,NNW,345,0.0,1.0,89,0.00,,---,0.00,VWS V14.01,2013-03-07 07:45:00,
2013-03-07 02:50:00,30.8,28.0,30.23,NNW,345,0.0,1.0,89,0.00,,---,0.00,VWS V14.01,2013-03-07 07:50:00,
2013-03-07 02:55:00,30.7,27.9,30.22,NNW,345,0.0,1.0,89,0.00,,---,0.00,VWS V14.01,2013-03-07 07:55:00,
2013-03-07 03:00:00,30.6,27.8,30.22,NNW,345,0.0,1.0,89,0.00,,---,0.00,VWS V14.01,2013-03-07 08:00:00,
2013-03-07 03:05:00,30.6,27.8,30.22,NNW,344,0.0,0.0,89,0.00,,---,0.00,VWS V14.01,2013-03-07 08:05:00,
2013-03-07 03:10:00,30.5,27.6,30.22,NNW,344,0.0,0.0,89,0.00,,---,0.00,VWS V14.01,2013-03-07 08:10:00,
2013-03-07 03:15:00,30.5,27.6,30.22,NNW,345,0.0,0.0,89,0.00,,---,0.00,VWS V14.01,2013-03-07 08:15:00,
2013-03-07 03:20:00,30.5,27.9,30.22,NNW,345,0.0,0.0,90,0.00,,---,0.00,VWS V14.01,2013-03-07 08:20:00,
2013-03-07 03:26:00,30.5,27.9,30.23,NNW,344,0.0,0.0,90,0.00,,---,0.00,VWS V14.01,2013-03-07 08:26:00,
2013-03-07 03:31:00,30.5,27.9,30.23,NNW,345,0.0,0.0,90,0.00,,---,0.00,VWS V14.01,2013-03-07 08:31:00,
2013-03-07 03:36:00,30.4,27.8,30.23,NNW,344,0.0,0.0,90,0.00,,---,0.00,VWS V14.01,2013-03-07 08:36:00,
2013-03-07 03:41:00,30.4,27.8,30.23,NNW,345,0.0,0.0,90,0.00,,---,0.00,VWS V14.01,2013-03-07 08:41:00,
2013-03-07 03:46:00,30.3,27.7,30.23,NNW,345,0.0,0.0,90,0.00,,---,0.00,VWS V14.01,2013-03-07 08:46:00,
2013-03-07 03:51:00,30.2,27.6,30.23,NNW,344,0.0,0.0,90,0.00,,---,0.00,VWS V14.01,2013-03-07 08:51:00,
2013-03-07 03:56:00,30.1,27.5,30.23,NNW,345,0.0,0.0,90,0.00,,---,0.00,VWS V14.01,2013-03-07 08:56:00,
2013-03-07 04:01:00,30.1,27.5,30.24,NNW,342,0.0,1.0,90,0.00,,---,0.00,VWS V14.01,2013-03-07 09:01:00,
2013-03-07 04:06:00,30.2,27.9,30.24,NNW,342,0.0,1.0,91,0.00,,---,0.00,VWS V14.01,2013-03-07 09:06:00,
2013-03-07 04:12:00,30.4,28.1,30.24,NW,321,0.0,1.0,91,0.00,,---,0.00,VWS V14.01,2013-03-07 09:12:00,
2013-03-07 04:17:00,30.4,27.8,30.24,NW,320,0.0,1.0,90,0.00,,---,0.00,VWS V14.01,2013-03-07 09:17:00,
2013-03-07 04:22:00,30.4,27.8,30.24,NW,321,0.0,1.0,90,0.00,,---,0.00,VWS V14.01,2013-03-07 09:22:00,
2013-03-07 04:27:00,30.5,27.9,30.24,NW,321,0.0,1.0,90,0.00,,---,0.00,VWS V14.01,2013-03-07 09:27:00,
2013-03-07 04:32:00,30.6,28.0,30.24,NW,322,0.0,1.0,90,0.00,,---,0.00,VWS V14.01,2013-03-07 09:32:00,
2013-03-07 04:37:00,30.6,28.0,30.24,WNW,296,1.0,1.0,90,0.00,,---,0.00,VWS V14.01,2013-03-07 09:37:00,
2013-03-07 04:42:00,30.7,28.1,30.25,WNW,296,1.0,1.0,90,0.00,,---,0.00,VWS V14.01,2013-03-07 09:42:00,
2013-03-07 04:48:00,30.8,28.2,30.24,WNW,294,1.0,1.0,90,0.00,,---,0.00,VWS V14.01,2013-03-07 09:48:00,
2013-03-07 04:53:00,30.8,28.2,30.25,WNW,294,0.0,1.0,90,0.00,,---,0.00,VWS V14.01,2013-03-07 09:53:00,
2013-03-07 04:58:00,30.8,28.2,30.25,WNW,294,0.0,1.0,90,0.00,,---,0.00,VWS V14.01,2013-03-07 09:58:00,
2013-03-07 05:03:00,30.8,28.2,30.25,West,267,1.0,2.0,90,0.00,,---,0.00,VWS V14.01,2013-03-07 10:03:00,
2013-03-07 05:08:00,30.8,28.2,30.25,West,266,1.0,2.0,90,0.00,,---,0.00,VWS V14.01,2013-03-07 10:08:00,
2013-03-07 05:13:00,30.9,28.3,30.25,West,266,0.0,2.0,90,0.00,,---,0.00,VWS V14.01,2013-03-07 10:13:00,
2013-03-07 05:19:00,30.9,28.3,30.25,WNW,297,1.0,2.0,90,0.00,,---,0.00,VWS V14.01,2013-03-07 10:19:00,
2013-03-07 05:24:00,30.9,28.3,30.25,NNW,338,0.0,2.0,90,0.00,,---,0.00,VWS V14.01,2013-03-07 10:24:00,
2013-03-07 05:29:00,30.9,28.3,30.25,NW,314,0.0,2.0,90,0.00,,---,0.00,VWS V14.01,2013-03-07 10:29:00,
2013-03-07 05:34:00,31.0,28.4,30.26,NW,315,0.0,2.0,90,0.00,,---,0.00,VWS V14.01,2013-03-07 10:34:00,
2013-03-07 05:39:00,31.0,28.4,30.26,NW,314,1.0,2.0,90,0.00,,---,0.00,VWS V14.01,2013-03-07 10:39:00,
2013-03-07 05:44:00,31.0,28.4,30.26,NW,315,0.0,2.0,90,0.00,,---,0.00,VWS V14.01,2013-03-07 10:44:00,
2013-03-07 05:49:00,31.0,28.4,30.26,NW,323,0.0,2.0,90,0.00,,---,0.00,VWS V14.01,2013-03-07 10:49:00,
2013-03-07 05:55:00,31.0,28.4,30.26,NNW,339,0.0,3.0,90,0.00,,---,0.00,VWS V14.01,2013-03-07 10:55:00,
2013-03-07 06:00:00,31.0,28.4,30.26,NW,326,1.0,3.0,90,0.00,,---,0.00,VWS V14.01,2013-03-07 11:00:00,
2013-03-07 06:05:00,31.0,28.4,30.27,NW,304,1.0,2.0,90,0.00,,---,0.00,VWS V14.01,2013-03-07 11:05:00,
2013-03-07 06:10:00,31.0,28.4,30.26,WNW,284,1.0,2.0,90,0.00,,---,0.00,VWS V14.01,2013-03-07 11:10:00,
2013-03-07 06:15:00,31.0,28.4,30.27,NW,304,3.0,3.0,90,0.00,,---,0.00,VWS V14.01,2013-03-07 11:15:00,
2013-03-07 06:20:00,31.0,28.7,30.27,NW,307,1.0,3.0,91,0.00,,---,0.00,VWS V14.01,2013-03-07 11:20:00,
2013-03-07 06:25:00,31.0,28.7,30.27,NW,314,1.0,3.0,91,0.00,,---,0.00,VWS V14.01,2013-03-07 11:25:00,
2013-03-07 06:30:00,31.0,28.7,30.27,NW,326,2.0,3.0,91,0.00,,---,0.00,VWS V14.01,2013-03-07 11:30:00,
2013-03-07 06:35:00,31.0,28.7,30.27,NW,319,2.0,3.0,91,0.00,,---,0.00,VWS V14.01,2013-03-07 11:35:00,
2013-03-07 06:41:00,31.0,28.7,30.27,NW,314,2.0,3.0,91,0.00,,---,0.00,VWS V14.01,2013-03-07 11:41:00,
2013-03-07 06:46:00,31.0,28.7,30.27,WNW,293,2.0,3.0,91,0.00,,---,0.00,VWS V14.01,2013-03-07 11:46:00,
2013-03-07 06:51:00,31.0,28.7,30.27,WNW,293,1.0,3.0,91,0.00,,---,0.00,VWS V14.01,2013-03-07 11:51:00,
2013-03-07 06:56:00,31.0,28.7,30.27,West,280,2.0,3.0,91,0.00,,---,0.00,VWS V14.01,2013-03-07 11:56:00,
2013-03-07 07:01:00,30.9,28.9,30.27,NW,314,1.0,4.0,92,0.00,,---,0.00,VWS V14.01,2013-03-07 12:01:00,
2013-03-07 07:07:00,30.9,28.9,30.27,NW,311,0.0,2.0,92,0.00,,---,0.00,VWS V14.01,2013-03-07 12:07:00,
2013-03-07 07:12:00,30.9,28.9,30.27,NW,311,2.0,3.0,92,0.00,,---,0.00,VWS V14.01,2013-03-07 12:12:00,
2013-03-07 07:17:00,30.8,28.8,30.27,WNW,302,1.0,3.0,92,0.00,,---,0.00,VWS V14.01,2013-03-07 12:17:00,
2013-03-07 07:22:00,30.9,29.1,30.28,WNW,298,1.0,3.0,93,0.00,,---,0.00,VWS V14.01,2013-03-07 12:22:00,
2013-03-07 07:27:00,30.9,29.1,30.28,NW,304,2.0,3.0,93,0.00,,---,0.00,VWS V14.01,2013-03-07 12:27:00,
2013-03-07 07:32:00,30.9,29.1,30.28,NW,324,0.0,4.0,93,0.00,,---,0.00,VWS V14.01,2013-03-07 12:32:00,
2013-03-07 07:37:00,31.0,29.2,30.28,WNW,294,1.0,4.0,93,0.00,,---,0.00,VWS V14.01,2013-03-07 12:37:00,
2013-03-07 07:42:00,31.0,29.2,30.28,NW,321,4.0,5.0,93,0.00,,---,0.00,VWS V14.01,2013-03-07 12:42:00,
2013-03-07 07:47:00,31.1,29.3,30.28,WNW,300,5.0,6.0,93,0.00,,---,0.00,VWS V14.01,2013-03-07 12:47:00,
2013-03-07 07:52:00,31.2,29.4,30.28,NW,315,5.0,7.0,93,0.00,,---,0.00,VWS V14.01,2013-03-07 12:52:00,
2013-03-07 07:58:00,31.2,29.4,30.28,North,350,5.0,7.0,93,0.00,,---,0.00,VWS V14.01,2013-03-07 12:58:00,
2013-03-07 08:03:00,31.2,29.4,30.29,NNW,338,3.0,4.0,93,0.00,,---,0.00,VWS V14.01,2013-03-07 13:03:00,
2013-03-07 08:08:00,31.3,29.5,30.29,North,1,4.0,6.0,93,0.00,,---,0.00,VWS V14.01,2013-03-07 13:08:00,
2013-03-07 08:13:00,31.3,29.2,30.30,North,349,3.0,6.0,92,0.00,,---,0.00,VWS V14.01,2013-03-07 13:13:00,
2013-03-07 08:18:00,31.4,29.4,30.30,WNW,294,5.0,9.0,92,0.00,,---,0.00,VWS V14.01,2013-03-07 13:18:00,
2013-03-07 08:23:00,31.5,29.5,30.30,NNW,338,5.0,9.0,92,0.00,,---,0.00,VWS V14.01,2013-03-07 13:23:00,
2013-03-07 08:29:00,31.6,29.5,30.31,NNW,333,4.0,10.0,92,0.00,,---,0.00,VWS V14.01,2013-03-07 13:29:00,
2013-03-07 08:33:00,31.6,29.5,30.31,North,6,6.0,10.0,92,0.00,,---,0.00,VWS V14.01,2013-03-07 13:33:00,
2013-03-07 08:39:00,31.7,29.6,30.31,NNW,344,5.0,10.0,92,0.00,,---,0.00,VWS V14.01,2013-03-07 13:39:00,
2013-03-07 08:44:00,31.7,29.6,30.31,NNE,15,3.0,10.0,92,0.00,,---,0.00,VWS V14.01,2013-03-07 13:44:00,
2013-03-07 08:49:00,31.8,29.8,30.31,NW,312,5.0,10.0,92,0.00,,---,0.00,VWS V14.01,2013-03-07 13:49:00,
2013-03-07 08:54:00,31.9,29.8,30.31,NW,326,4.0,10.0,92,0.00,,---,0.00,VWS V14.01,2013-03-07 13:54:00,
2013-03-07 08:59:00,31.8,29.8,30.31,NW,326,7.0,11.0,92,0.00,,---,0.00,VWS V14.01,2013-03-07 13:59:00,
2013-03-07 09:04:00,31.8,29.8,30.31,NW,311,7.0,7.0,92,0.00,,---,0.00,VWS V14.01,2013-03-07 14:04:00,
2013-03-07 09:09:00,31.6,29.5,30.31,NW,307,4.0,11.0,92,0.00,,---,0.00,VWS V14.01,2013-03-07 14:09:00,
2013-03-07 09:14:00,31.4,29.4,30.32,WNW,300,3.0,11.0,92,0.00,,---,0.00,VWS V14.01,2013-03-07 14:14:00,
2013-03-07 09:19:00,31.4,29.4,30.32,NNW,340,5.0,11.0,92,0.00,,---,0.00,VWS V14.01,2013-03-07 14:19:00,
2013-03-07 09:25:00,31.4,29.4,30.32,WNW,301,3.0,11.0,92,0.00,,---,0.00,VWS V14.01,2013-03-07 14:25:00,
2013-03-07 09:30:00,31.4,29.4,30.33,NW,310,3.0,11.0,92,0.00,,---,0.00,VWS V14.01,2013-03-07 14:30:00,
2013-03-07 09:35:00,31.4,29.4,30.32,NNE,20,4.0,11.0,92,0.00,,---,0.00,VWS V14.01,2013-03-07 14:35:00,
2013-03-07 09:40:00,31.5,29.5,30.33,NNW,342,4.0,11.0,92,0.00,,---,0.00,VWS V14.01,2013-03-07 14:40:00,
2013-03-07 09:45:00,31.6,29.3,30.33,NNE,25,4.0,11.0,91,0.00,,---,0.00,VWS V14.01,2013-03-07 14:45:00,
2013-03-07 09:50:00,31.6,29.0,30.33,NNW,340,4.0,11.0,90,0.00,,---,0.00,VWS V14.01,2013-03-07 14:50:00,
2013-03-07 09:55:00,31.6,29.0,30.33,West,263,8.0,11.0,90,0.00,,---,0.00,VWS V14.01,2013-03-07 14:55:00,
2013-03-07 10:00:00,31.7,29.1,30.33,NNW,340,4.0,11.0,90,0.00,,---,0.00,VWS V14.01,2013-03-07 15:00:00,
2013-03-07 10:05:00,31.6,28.7,30.33,WNW,284,7.0,9.0,89,0.00,,---,0.00,VWS V14.01,2013-03-07 15:05:00,
2013-03-07 10:10:00,31.6,28.7,30.33,NNW,340,7.0,12.0,89,0.00,,---,0.00,VWS V14.01,2013-03-07 15:10:00,
2013-03-07 10:15:00,31.7,28.8,30.33,WNW,302,4.0,12.0,89,0.00,,---,0.00,VWS V14.01,2013-03-07 15:15:00,
2013-03-07 10:21:00,31.6,28.7,30.33,NW,320,3.0,12.0,89,0.00,,---,0.00,VWS V14.01,2013-03-07 15:21:00,
2013-03-07 10:26:00,31.6,28.5,30.33,NW,307,5.0,12.0,88,0.00,,---,0.00,VWS V14.01,2013-03-07 15:26:00,
2013-03-07 10:31:00,31.5,28.4,30.33,WNW,288,3.0,12.0,88,0.00,,---,0.00,VWS V14.01,2013-03-07 15:31:00,
2013-03-07 10:36:00,31.6,28.5,30.33,NNW,340,5.0,12.0,88,0.00,,---,0.00,VWS V14.01,2013-03-07 15:36:00,
2013-03-07 10:41:00,31.6,28.2,30.34,North,349,4.0,12.0,87,0.00,,---,0.00,VWS V14.01,2013-03-07 15:41:00,
2013-03-07 10:46:00,31.6,28.2,30.34,North,6,10.0,12.0,87,0.00,,---,0.00,VWS V14.01,2013-03-07 15:46:00,
2013-03-07 10:51:00,31.6,27.9,30.34,NNW,346,3.0,12.0,86,0.00,,---,0.00,VWS V14.01,2013-03-07 15:51:00,
2013-03-07 10:57:00,31.7,28.0,30.34,WNW,297,6.0,12.0,86,0.00,,---,0.00,VWS V14.01,2013-03-07 15:57:00,
2013-03-07 11:02:00,31.8,28.1,30.34,NW,312,2.0,4.0,86,0.00,,---,0.00,VWS V14.01,2013-03-07 16:02:00,
2013-03-07 11:07:00,32.0,28.0,30.34,NNE,26,8.0,12.0,85,0.00,,---,0.00,VWS V14.01,2013-03-07 16:07:00,
2013-03-07 11:12:00,32.1,28.1,30.34,NNW,335,1.0,12.0,85,0.00,,---,0.00,VWS V14.01,2013-03-07 16:12:00,
2013-03-07 11:17:00,32.1,27.5,30.34,NNW,336,4.0,12.0,83,0.00,,---,0.00,VWS V14.01,2013-03-07 16:17:00,
2013-03-07 11:22:00,32.1,27.8,30.34,NNW,335,9.0,12.0,84,0.00,,---,0.00,VWS V14.01,2013-03-07 16:22:00,
2013-03-07 11:27:00,32.1,27.5,30.34,North,5,6.0,12.0,83,0.00,,---,0.00,VWS V14.01,2013-03-07 16:27:00,
2013-03-07 11:32:00,32.1,27.5,30.34,WNW,294,8.0,12.0,83,0.00,,---,0.00,VWS V14.01,2013-03-07 16:32:00,
2013-03-07 11:38:00,32.1,27.5,30.34,NNW,342,3.0,13.0,83,0.00,,---,0.00,VWS V14.01,2013-03-07 16:38:00,
2013-03-07 11:43:00,32.2,27.6,30.34,NNW,329,5.0,13.0,83,0.00,,---,0.00,VWS V14.01,2013-03-07 16:43:00,
2013-03-07 11:48:00,32.2,27.6,30.35,NNW,338,5.0,13.0,83,0.00,,---,0.00,VWS V14.01,2013-03-07 16:48:00,
2013-03-07 11:53:00,32.1,27.2,30.34,North,11,9.0,13.0,82,0.00,,---,0.00,VWS V14.01,2013-03-07 16:53:00,
2013-03-07 11:58:00,31.9,27.0,30.35,NNE,26,6.0,13.0,82,0.00,,---,0.00,VWS V14.01,2013-03-07 16:58:00,
2013-03-07 12:03:00,31.8,26.9,30.35,NW,316,5.0,15.0,82,0.00,,---,0.00,VWS V14.01,2013-03-07 17:03:00,
2013-03-07 12:08:00,31.9,27.0,30.35,NNW,333,5.0,15.0,82,0.00,,---,0.00,VWS V14.01,2013-03-07 17:08:00,
2013-03-07 12:14:00,32.1,27.2,30.34,NW,309,8.0,15.0,82,0.00,,---,0.00,VWS V14.01,2013-03-07 17:14:00,
2013-03-07 12:19:00,32.3,27.1,30.34,NNE,25,5.0,15.0,81,0.00,,---,0.00,VWS V14.01,2013-03-07 17:19:00,
2013-03-07 12:24:00,32.2,27.0,30.34,North,9,7.0,15.0,81,0.00,,---,0.00,VWS V14.01,2013-03-07 17:24:00,
2013-03-07 12:29:00,32.2,27.0,30.34,NE,44,5.0,15.0,81,0.00,,---,0.00,VWS V14.01,2013-03-07 17:29:00,
2013-03-07 12:34:00,32.2,27.0,30.35,North,4,9.0,15.0,81,0.00,,---,0.00,VWS V14.01,2013-03-07 17:34:00,
2013-03-07 12:39:00,32.3,26.8,30.34,NW,322,5.0,15.0,80,0.00,,---,0.00,VWS V14.01,2013-03-07 17:39:00,
2013-03-07 12:44:00,32.3,27.1,30.34,NNW,330,2.0,15.0,81,0.00,,---,0.00,VWS V14.01,2013-03-07 17:44:00,
2013-03-07 12:49:00,32.5,27.3,30.34,NNW,336,3.0,15.0,81,0.00,,---,0.00,VWS V14.01,2013-03-07 17:49:00,
2013-03-07 12:54:00,32.6,27.1,30.34,WNW,298,3.0,15.0,80,0.00,,---,0.00,VWS V14.01,2013-03-07 17:54:00,
2013-03-07 12:59:00,32.4,26.9,30.34,NNW,330,5.0,15.0,80,0.00,,---,0.00,VWS V14.01,2013-03-07 17:59:00,
2013-03-07 13:04:00,32.3,26.5,30.34,NW,306,6.0,9.0,79,0.00,,---,0.00,VWS V14.01,2013-03-07 18:04:00,
2013-03-07 13:09:00,32.4,26.6,30.34,NNE,13,4.0,9.0,79,0.00,,---,0.00,VWS V14.01,2013-03-07 18:09:00,
2013-03-07 13:15:00,32.5,26.7,30.34,NNW,343,6.0,9.0,79,0.00,,---,0.00,VWS V14.01,2013-03-07 18:15:00,
2013-03-07 13:20:00,32.4,26.6,30.34,NNW,342,3.0,9.0,79,0.00,,---,0.00,VWS V14.01,2013-03-07 18:20:00,
2013-03-07 13:25:00,32.3,26.5,30.34,NNW,340,4.0,9.0,79,0.00,,---,0.00,VWS V14.01,2013-03-07 18:25:00,
2013-03-07 13:30:00,32.6,26.8,30.34,NNE,32,3.0,9.0,79,0.00,,---,0.00,VWS V14.01,2013-03-07 18:30:00,
2013-03-07 13:35:00,32.7,26.6,30.34,WNW,284,4.0,9.0,78,0.00,,---,0.00,VWS V14.01,2013-03-07 18:35:00,
2013-03-07 13:40:00,32.6,26.5,30.34,NNE,27,6.0,10.0,78,0.00,,---,0.00,VWS V14.01,2013-03-07 18:40:00,
2013-03-07 13:45:00,32.4,26.3,30.34,North,352,3.0,10.0,78,0.00,,---,0.00,VWS V14.01,2013-03-07 18:45:00,
2013-03-07 13:50:00,32.3,26.2,30.34,NNW,342,3.0,10.0,78,0.00,,---,0.00,VWS V14.01,2013-03-07 18:50:00,
2013-03-07 13:55:00,32.6,26.5,30.33,NNW,336,4.0,10.0,78,0.00,,---,0.00,VWS V14.01,2013-03-07 18:55:00,
2013-03-07 14:01:00,32.9,26.5,30.33,NNE,19,3.0,10.0,77,0.00,,---,0.00,VWS V14.01,2013-03-07 19:01:00,
2013-03-07 14:06:00,33.0,26.0,30.33,NNE,12,4.0,8.0,75,0.00,,---,0.00,VWS V14.01,2013-03-07 19:06:00,
2013-03-07 14:11:00,33.2,26.5,30.33,NNE,19,8.0,8.0,76,0.00,,---,0.00,VWS V14.01,2013-03-07 19:11:00,
2013-03-07 14:16:00,32.9,26.2,30.33,NNW,340,4.0,10.0,76,0.00,,---,0.00,VWS V14.01,2013-03-07 19:16:00,
2013-03-07 14:21:00,32.7,26.0,30.34,North,6,5.0,10.0,76,0.00,,---,0.00,VWS V14.01,2013-03-07 19:21:00,
2013-03-07 14:26:00,32.6,25.9,30.34,NE,34,4.0,10.0,76,0.00,,---,0.00,VWS V14.01,2013-03-07 19:26:00,
2013-03-07 14:32:00,32.6,25.9,30.34,NNW,332,5.0,10.0,76,0.00,,---,0.00,VWS V14.01,2013-03-07 19:32:00,
2013-03-07 14:37:00,32.9,26.2,30.34,North,6,4.0,10.0,76,0.00,,---,0.00,VWS V14.01,2013-03-07 19:37:00,
2013-03-07 14:42:00,33.0,26.0,30.35,North,350,3.0,10.0,75,0.00,,---,0.00,VWS V14.01,2013-03-07 19:42:00,
2013-03-07 14:47:00,32.9,25.9,30.35,NNE,25,5.0,10.0,75,0.00,,---,0.00,VWS V14.01,2013-03-07 19:47:00,
2013-03-07 14:52:00,32.8,25.4,30.35,North,356,7.0,10.0,74,0.00,,---,0.00,VWS V14.01,2013-03-07 19:52:00,
2013-03-07 14:57:00,32.6,25.6,30.35,NNE,32,4.0,11.0,75,0.00,,---,0.00,VWS V14.01,2013-03-07 19:57:00,
2013-03-07 15:02:00,32.6,25.6,30.35,North,11,5.0,8.0,75,0.00,,---,0.00,VWS V14.01,2013-03-07 20:02:00,
2013-03-07 15:07:00,32.6,25.6,30.35,North,358,6.0,8.0,75,0.00,,---,0.00,VWS V14.01,2013-03-07 20:07:00,
2013-03-07 15:12:00,32.7,25.3,30.35,NNE,13,5.0,8.0,74,0.00,,---,0.00,VWS V14.01,2013-03-07 20:12:00,
2013-03-07 15:17:00,32.6,25.2,30.35,NNE,15,4.0,8.0,74,0.00,,---,0.00,VWS V14.01,2013-03-07 20:17:00,
2013-03-07 15:22:00,32.7,25.3,30.35,NNE,29,3.0,8.0,74,0.00,,---,0.00,VWS V14.01,2013-03-07 20:22:00,
2013-03-07 15:27:00,32.7,25.3,30.35,NNW,330,5.0,10.0,74,0.00,,---,0.00,VWS V14.01,2013-03-07 20:27:00,
2013-03-07 15:32:00,32.8,25.4,30.35,NW,322,6.0,10.0,74,0.00,,---,0.00,VWS V14.01,2013-03-07 20:32:00,
2013-03-07 15:37:00,32.7,24.7,30.35,NW,326,4.0,10.0,72,0.00,,---,0.00,VWS V14.01,2013-03-07 20:37:00,
2013-03-07 15:42:00,32.6,24.6,30.35,NW,311,6.0,10.0,72,0.00,,---,0.00,VWS V14.01,2013-03-07 20:42:00,
2013-03-07 15:48:00,32.6,24.6,30.35,North,4,5.0,10.0,72,0.00,,---,0.00,VWS V14.01,2013-03-07 20:48:00,
2013-03-07 15:53:00,32.5,24.5,30.36,NNW,340,7.0,12.0,72,0.00,,---,0.00,VWS V14.01,2013-03-07 20:53:00,
2013-03-07 15:58:00,32.5,24.5,30.36,NNW,328,5.0,12.0,72,0.00,,---,0.00,VWS V14.01,2013-03-07 20:58:00,
2013-03-07 16:03:00,32.5,24.2,30.36,NW,324,4.0,5.0,71,0.00,,---,0.00,VWS V14.01,2013-03-07 21:03:00,
2013-03-07 16:08:00,32.6,23.9,30.36,WNW,300,3.0,9.0,70,0.00,,---,0.00,VWS V14.01,2013-03-07 21:08:00,
2013-03-07 16:13:00,32.8,24.1,30.36,NW,324,3.0,9.0,70,0.00,,---,0.00,VWS V14.01,2013-03-07 21:13:00,
2013-03-07 16:19:00,32.7,23.3,30.36,North,353,6.0,9.0,68,0.00,,---,0.00,VWS V14.01,2013-03-07 21:19:00,
2013-03-07 16:24:00,32.6,23.6,30.36,North,358,4.0,9.0,69,0.00,,---,0.00,VWS V14.01,2013-03-07 21:24:00,
2013-03-07 16:29:00,32.6,23.2,30.37,NNW,338,5.0,9.0,68,0.00,,---,0.00,VWS V14.01,2013-03-07 21:29:00,
2013-03-07 16:34:00,32.5,22.8,30.36,NNW,338,6.0,9.0,67,0.00,,---,0.00,VWS V14.01,2013-03-07 21:34:00,
2013-03-07 16:39:00,32.6,22.9,30.37,NNW,328,5.0,9.0,67,0.00,,---,0.00,VWS V14.01,2013-03-07 21:39:00,
2013-03-07 16:44:00,32.5,22.8,30.37,NW,304,6.0,11.0,67,0.00,,---,0.00,VWS V14.01,2013-03-07 21:44:00,
2013-03-07 16:50:00,32.3,21.9,30.36,NW,306,1.0,11.0,65,0.00,,---,0.00,VWS V14.01,2013-03-07 21:50:00,
2013-03-07 16:55:00,32.1,22.0,30.37,NNW,330,6.0,11.0,66,0.00,,---,0.00,VWS V14.01,2013-03-07 21:55:00,
2013-03-07 17:00:00,31.8,21.4,30.37,WNW,295,4.0,11.0,65,0.00,,---,0.00,VWS V14.01,2013-03-07 22:00:00,
2013-03-07 17:05:00,31.8,21.8,30.37,WNW,296,5.0,9.0,66,0.00,,---,0.00,VWS V14.01,2013-03-07 22:05:00,
2013-03-07 17:10:00,31.9,21.5,30.37,NW,326,3.0,10.0,65,0.00,,---,0.00,VWS V14.01,2013-03-07 22:10:00,
2013-03-07 17:15:00,32.0,21.2,30.36,NW,312,6.0,10.0,64,0.00,,---,0.00,VWS V14.01,2013-03-07 22:15:00,
2013-03-07 17:20:00,31.9,21.1,30.37,WNW,286,4.0,10.0,64,0.00,,---,0.00,VWS V14.01,2013-03-07 22:20:00,
2013-03-07 17:25:00,31.8,21.4,30.37,NW,312,4.0,10.0,65,0.00,,---,0.00,VWS V14.01,2013-03-07 22:25:00,
2013-03-07 17:30:00,31.8,21.0,30.37,NW,318,4.0,10.0,64,0.00,,---,0.00,VWS V14.01,2013-03-07 22:30:00,
2013-03-07 17:35:00,31.8,21.4,30.37,NNE,23,5.0,10.0,65,0.00,,---,0.00,VWS V14.01,2013-03-07 22:35:00,
2013-03-07 17:40:00,31.8,22.1,30.37,North,1,1.0,10.0,67,0.00,,---,0.00,VWS V14.01,2013-03-07 22:40:00,
2013-03-07 17:46:00,31.8,21.8,30.37,NNE,21,2.0,10.0,66,0.00,,---,0.00,VWS V14.01,2013-03-07 22:46:00,
2013-03-07 17:51:00,31.7,21.3,30.37,North,6,2.0,10.0,65,0.00,,---,0.00,VWS V14.01,2013-03-07 22:51:00,
2013-03-07 17:56:00,31.7,21.7,30.38,NNE,29,3.0,10.0,66,0.00,,---,0.00,VWS V14.01,2013-03-07 22:56:00,
2013-03-07 18:01:00,31.6,21.2,30.38,NNE,16,5.0,10.0,65,0.00,,---,0.00,VWS V14.01,2013-03-07 23:01:00,
2013-03-07 18:06:00,31.6,21.6,30.38,NNE,20,3.0,5.0,66,0.00,,---,0.00,VWS V14.01,2013-03-07 23:06:00,
2013-03-07 18:11:00,31.5,21.5,30.38,North,11,3.0,6.0,66,0.00,,---,0.00,VWS V14.01,2013-03-07 23:11:00,
2013-03-07 18:16:00,31.4,21.0,30.39,NNW,331,2.0,7.0,65,0.00,,---,0.00,VWS V14.01,2013-03-07 23:16:00,
2013-03-07 18:22:00,31.4,21.0,30.39,NNE,22,4.0,7.0,65,0.00,,---,0.00,VWS V14.01,2013-03-07 23:22:00,
2013-03-07 18:27:00,31.4,20.6,30.39,NNE,18,4.0,9.0,64,0.00,,---,0.00,VWS V14.01,2013-03-07 23:27:00,
2013-03-07 18:32:00,31.2,20.5,30.39,NNW,342,6.0,9.0,64,0.00,,---,0.00,VWS V14.01,2013-03-07 23:32:00,
2013-03-07 18:37:00,31.1,20.4,30.39,NNW,328,2.0,9.0,64,0.00,,---,0.00,VWS V14.01,2013-03-07 23:37:00,
2013-03-07 18:42:00,30.9,20.2,30.39,NNE,18,2.0,9.0,64,0.00,,---,0.00,VWS V14.01,2013-03-07 23:42:00,
2013-03-07 18:47:00,30.6,20.2,30.39,NNE,15,1.0,9.0,65,0.00,,---,0.00,VWS V14.01,2013-03-07 23:47:00,
2013-03-07 18:53:00,30.4,20.1,30.39,North,353,1.0,9.0,65,0.00,,---,0.00,VWS V14.01,2013-03-07 23:53:00,
2013-03-07 18:58:00,30.2,19.9,30.39,North,356,1.0,9.0,65,0.00,,---,0.00,VWS V14.01,2013-03-07 23:58:00,
2013-03-07 19:03:00,30.0,20.0,30.39,North,6,1.0,1.0,66,0.00,,---,0.00,VWS V14.01,2013-03-08 00:03:00,
2013-03-07 19:08:00,29.9,20.3,30.40,North,360,1.0,2.0,67,0.00,,---,0.00,VWS V14.01,2013-03-08 00:08:00,
2013-03-07 19:13:00,29.8,20.2,30.40,North,11,0.0,2.0,67,0.00,,---,0.00,VWS V14.01,2013-03-08 00:13:00,
2013-03-07 19:19:00,29.8,20.5,30.40,NNE,31,0.0,2.0,68,0.00,,---,0.00,VWS V14.01,2013-03-08 00:19:00,
2013-03-07 19:24:00,29.8,20.5,30.40,North,9,1.0,3.0,68,0.00,,---,0.00,VWS V14.01,2013-03-08 00:24:00,
2013-03-07 19:29:00,29.8,20.5,30.40,NNE,15,0.0,3.0,68,0.00,,---,0.00,VWS V14.01,2013-03-08 00:29:00,
2013-03-07 19:34:00,29.8,20.5,30.41,NNW,347,1.0,3.0,68,0.00,,---,0.00,VWS V14.01,2013-03-08 00:34:00,
2013-03-07 19:39:00,29.8,20.5,30.41,NNE,15,1.0,3.0,68,0.00,,---,0.00,VWS V14.01,2013-03-08 00:39:00,
2013-03-07 19:44:00,29.9,20.6,30.41,North,350,2.0,4.0,68,0.00,,---,0.00,VWS V14.01,2013-03-08 00:44:00,
2013-03-07 19:49:00,29.9,20.6,30.41,NE,41,2.0,4.0,68,0.00,,---,0.00,VWS V14.01,2013-03-08 00:49:00,
2013-03-07 19:54:00,29.9,20.6,30.41,NE,37,1.0,4.0,68,0.00,,---,0.00,VWS V14.01,2013-03-08 00:54:00,
2013-03-07 20:00:00,29.8,20.5,30.41,NNE,32,2.0,4.0,68,0.00,,---,0.00,VWS V14.01,2013-03-08 01:00:00,
2013-03-07 20:05:00,29.8,20.5,30.41,NE,37,2.0,2.0,68,0.00,,---,0.00,VWS V14.01,2013-03-08 01:05:00,
2013-03-07 20:10:00,29.7,20.5,30.41,NE,35,1.0,3.0,68,0.00,,---,0.00,VWS V14.01,2013-03-08 01:10:00,
2013-03-07 20:15:00,29.7,20.5,30.41,NE,35,0.0,3.0,68,0.00,,---,0.00,VWS V14.01,2013-03-08 01:15:00,
2013-03-07 20:20:00,29.5,20.3,30.41,NE,36,0.0,3.0,68,0.00,,---,0.00,VWS V14.01,2013-03-08 01:20:00,
2013-03-07 20:25:00,29.5,20.6,30.41,NE,37,1.0,3.0,69,0.00,,---,0.00,VWS V14.01,2013-03-08 01:25:00,
2013-03-07 20:30:00,29.4,20.8,30.41,NE,37,1.0,3.0,70,0.00,,---,0.00,VWS V14.01,2013-03-08 01:30:00,
2013-03-07 20:35:00,29.2,20.6,30.41,NE,37,0.0,3.0,70,0.00,,---,0.00,VWS V14.01,2013-03-08 01:35:00,
2013-03-07 20:40:00,29.1,20.5,30.41,NE,37,0.0,3.0,70,0.00,,---,0.00,VWS V14.01,2013-03-08 01:40:00,
2013-03-07 20:45:00,28.9,20.7,30.41,NE,37,0.0,3.0,71,0.00,,---,0.00,VWS V14.01,2013-03-08 01:45:00,
2013-03-07 20:51:00,28.6,20.7,30.41,NE,37,0.0,3.0,72,0.00,,---,0.00,VWS V14.01,2013-03-08 01:51:00,
2013-03-07 20:56:00,28.3,20.4,30.41,NE,37,0.0,3.0,72,0.00,,---,0.00,VWS V14.01,2013-03-08 01:56:00,
2013-03-07 21:01:00,28.3,20.4,30.41,NE,37,0.0,3.0,72,0.00,,---,0.00,VWS V14.01,2013-03-08 02:01:00,
2013-03-07 21:06:00,28.1,20.6,30.41,NE,37,0.0,0.0,73,0.00,,---,0.00,VWS V14.01,2013-03-08 02:06:00,
2013-03-07 21:12:00,27.8,20.6,30.41,NE,37,0.0,0.0,74,0.00,,---,0.00,VWS V14.01,2013-03-08 02:12:00,
2013-03-07 21:17:00,27.4,20.5,30.41,NE,37,0.0,0.0,75,0.00,,---,0.00,VWS V14.01,2013-03-08 02:17:00,
2013-03-07 21:22:00,27.0,20.5,30.41,NE,37,0.0,0.0,76,0.00,,---,0.00,VWS V14.01,2013-03-08 02:22:00,
2013-03-07 21:27:00,26.6,20.4,30.41,NE,37,0.0,0.0,77,0.00,,---,0.00,VWS V14.01,2013-03-08 02:27:00,
2013-03-07 21:32:00,26.3,20.1,30.41,NE,37,0.0,0.0,77,0.00,,---,0.00,VWS V14.01,2013-03-08 02:32:00,
2013-03-07 21:37:00,25.8,19.9,30.41,NE,37,0.0,0.0,78,0.00,,---,0.00,VWS V14.01,2013-03-08 02:37:00,
2013-03-07 21:42:00,25.5,20.2,30.41,NE,37,0.0,0.0,80,0.00,,---,0.00,VWS V14.01,2013-03-08 02:42:00,
2013-03-07 21:47:00,25.4,19.8,30.41,NE,37,0.0,0.0,79,0.00,,---,0.00,VWS V14.01,2013-03-08 02:47:00,
2013-03-07 21:52:00,25.3,20.0,30.41,NE,37,0.0,0.0,80,0.00,,---,0.00,VWS V14.01,2013-03-08 02:52:00,
2013-03-07 21:57:00,25.1,19.8,30.41,NE,37,0.0,0.0,80,0.00,,---,0.00,VWS V14.01,2013-03-08 02:57:00,
2013-03-07 22:02:00,24.7,19.4,30.41,NE,37,0.0,0.0,80,0.00,,---,0.00,VWS V14.01,2013-03-08 03:02:00,
2013-03-07 22:07:00,24.4,19.4,30.41,NE,37,0.0,0.0,81,0.00,,---,0.00,VWS V14.01,2013-03-08 03:07:00,
2013-03-07 22:13:00,24.0,19.0,30.41,NE,37,0.0,0.0,81,0.00,,---,0.00,VWS V14.01,2013-03-08 03:13:00,
2013-03-07 22:18:00,23.6,18.9,30.42,NE,37,0.0,0.0,82,0.00,,---,0.00,VWS V14.01,2013-03-08 03:18:00,
2013-03-07 22:23:00,23.4,19.0,30.41,NE,37,0.0,0.0,83,0.00,,---,0.00,VWS V14.01,2013-03-08 03:23:00,
2013-03-07 22:28:00,23.5,19.4,30.41,NE,37,0.0,0.0,84,0.00,,---,0.00,VWS V14.01,2013-03-08 03:28:00,
2013-03-07 22:33:00,23.4,19.3,30.42,NE,37,0.0,0.0,84,0.00,,---,0.00,VWS V14.01,2013-03-08 03:33:00,
2013-03-07 22:38:00,23.0,18.6,30.41,NE,37,0.0,0.0,83,0.00,,---,0.00,VWS V14.01,2013-03-08 03:38:00,
2013-03-07 22:43:00,22.5,18.4,30.42,NE,37,0.0,0.0,84,0.00,,---,0.00,VWS V14.01,2013-03-08 03:43:00,
2013-03-07 22:48:00,22.5,19.0,30.42,NE,37,0.0,0.0,86,0.00,,---,0.00,VWS V14.01,2013-03-08 03:48:00,
2013-03-07 22:53:00,22.6,19.0,30.42,NE,37,0.0,0.0,86,0.00,,---,0.00,VWS V14.01,2013-03-08 03:53:00,
2013-03-07 22:58:00,22.3,18.8,30.42,NE,37,0.0,0.0,86,0.00,,---,0.00,VWS V14.01,2013-03-08 03:58:00,
2013-03-07 23:03:00,22.1,18.8,30.42,NE,37,0.0,0.0,87,0.00,,---,0.00,VWS V14.01,2013-03-08 04:03:00,
2013-03-07 23:09:00,21.8,18.3,30.42,NE,37,0.0,0.0,86,0.00,,---,0.00,VWS V14.01,2013-03-08 04:09:00,
2013-03-07 23:14:00,21.8,18.5,30.41,NE,37,0.0,0.0,87,0.00,,---,0.00,VWS V14.01,2013-03-08 04:14:00,
2013-03-07 23:19:00,22.1,19.1,30.41,NE,37,0.0,0.0,88,0.00,,---,0.00,VWS V14.01,2013-03-08 04:19:00,
2013-03-07 23:24:00,22.3,19.0,30.41,NE,37,0.0,0.0,87,0.00,,---,0.00,VWS V14.01,2013-03-08 04:24:00,
2013-03-07 23:29:00,22.2,18.9,30.41,NE,37,0.0,1.0,87,0.00,,---,0.00,VWS V14.01,2013-03-08 04:29:00,
2013-03-07 23:34:00,22.1,18.8,30.42,NE,37,0.0,1.0,87,0.00,,---,0.00,VWS V14.01,2013-03-08 04:34:00,
2013-03-07 23:39:00,22.0,18.7,30.42,NE,37,0.0,1.0,87,0.00,,---,0.00,VWS V14.01,2013-03-08 04:39:00,
2013-03-07 23:44:00,22.2,19.2,30.42,NE,37,0.0,1.0,88,0.00,,---,0.00,VWS V14.01,2013-03-08 04:44:00,
2013-03-07 23:49:00,22.0,18.7,30.42,NE,37,0.0,1.0,87,0.00,,---,0.00,VWS V14.01,2013-03-08 04:49:00,
2013-03-07 23:54:00,21.7,18.4,30.42,NE,37,0.0,1.0,87,0.00,,---,0.00,VWS V14.01,2013-03-08 04:54:00,